Location: Azul
(36.7830°S, 59.8500°W)
Time: 10:17:40
(UTC-03:00)

AO-73 - Visible Passes

Search period start: 22 October 2021 00:00
Search period end: 01 November 2021 00:00
Orbit: 580 x 662 km, 97.6° (Epoch: 21 October)

Date Brightness Start Highest point End Pass type
(mag) Time Alt. Az. Time Alt. Az. Time Alt. Az.
22 Oct ? 04:07:17 10° NE 04:11:06 29° ESE 04:15:02 10° S visible
23 Oct ? 04:24:24 10° NE 04:28:38 45° ESE 04:33:00 10° S visible
24 Oct ? 04:41:47 10° NNE 04:46:13 73° ESE 04:50:47 10° S visible
25 Oct ? 03:27:26 10° ESE 03:28:22 11° ESE 03:29:19 10° SE visible
25 Oct ? 04:59:24 10° N 05:03:51 71° W 05:08:26 10° SSW visible
26 Oct ? 03:42:58 10° ENE 03:45:46 16° ESE 03:48:38 10° SSE visible
26 Oct ? 05:17:15 10° N 05:21:30 44° W 05:25:55 10° SSW visible
27 Oct ? 03:59:35 10° ENE 04:03:15 25° ESE 04:06:58 10° SSE visible
28 Oct ? 04:16:35 10° NE 04:20:44 38° ESE 04:25:00 10° S visible
29 Oct ? 04:33:51 10° NNE 04:38:17 60° ESE 04:42:51 10° S visible
30 Oct ? 04:51:22 10° NNE 04:55:54 86° W 05:00:32 10° SSW visible
31 Oct ? 03:35:34 10° E 03:37:55 14° ESE 03:40:17 10° SE visible
31 Oct ? 05:09:07 10° N 05:13:33 53° W 05:18:05 10° SSW visible
